Miscellaneous Local Product
Issued by NWS Hastings, NE

Home | Current Version | Previous Version | Graphics & Text | Print | Product List | Glossary On
Versions: 1 2 3 4 5 6 7 8 9 10 11 12 13 14 15 16 17 18 19 20 21 22 23 24 25 26 27 28 29 30 31 32 33 34 35 36 37 38 39 40 41 42 43 44 45 46 47 48 49 50
000
AXUS43 KGID 031602
MISGRI

GID CWA HOURLY WEATHER ROUNDUP
NATIONAL WEATHER SERVICE HASTINGS NE
1100 AM CDT SUN MAY 03 2015

NOTE: "FAIR" INDICATES FEW OR NO CLOUDS BELOW 12,000 FEET WITH NO
SIGNIFICANT WEATHER AND/OR OBSTRUCTIONS TO VISIBILITY.

...SOUTH CENTRAL NEBRASKA...

CITY           SKY/WX    TMP DP  RH WIND       PRES   REMARKS
GRAND ISLAND   PTSUNNY   77  52  41 W8        29.76S
HASTINGS       SUNNY     79  46  31 W9        29.76S
KEARNEY        SUNNY     75  48  38 W7        29.78S
ORD            PTSUNNY   72  48  42 CALM      29.74R
YORK           CLOUDY    70  55  60 SW10      29.76R
AURORA         PTSUNNY   72  51  46 SW6       29.76R
LEXINGTON      SUNNY     76  49  38 W8        29.78S
HOLDREGE       SUNNY     74  44  33 W9        29.79R
HEBRON         MOSUNNY   70  53  54 W7        29.77R

...NEBRASKA PANHANDLE...

CITY           SKY/WX    TMP DP  RH WIND       PRES   REMARKS
CHADRON        MOSUNNY   59  39  47 NE20      29.95S
ALLIANCE       SUNNY     61  37  41 N21G29    29.92R
SCOTTSBLUFF    SUNNY     64  35  34 N15       29.94R
SIDNEY         SUNNY     68  40  35 N20G29    29.92R

...WESTERN AND NORTH CENTRAL NEBRASKA...

CITY           SKY/WX    TMP DP  RH WIND       PRES   REMARKS
VALENTINE      MOSUNNY   65  40  39 N23G30    29.85R
AINSWORTH      MOSUNNY   65  43  45 N25G33    29.81R
ONEILL         MOSUNNY   70  52  53 N9        29.74R
BROKEN BOW     SUNNY     80  45  28 VRB7      29.76R
IMPERIAL       SUNNY     77  40  26 NW17G24   29.84R
NORTH PLATTE   SUNNY     72  49  44 W10       29.80R
MCCOOK         SUNNY     75  47  36 SW8       29.82R

...EASTERN NEBRASKA...

CITY           SKY/WX    TMP DP  RH WIND       PRES   REMARKS
NORFOLK        MOSUNNY   73  58  59 S7        29.73S
SO SIOUX CITY  MOSUNNY   74  57  55 SE6       29.74F
TEKAMAH        MOSUNNY   74  60  61 S14       29.75R
COLUMBUS       MOSUNNY   72  57  60 SW13      29.76R
ALBION         PTSUNNY   70  57  64 S8        29.73S
OMAHA EPPLEY   PTSUNNY   73  60  63 SW13      29.75S
OFFUTT AFB     SUNNY     74  60  61 S13       29.75R
MILLARD        SUNNY     73  60  65 S12       29.74S
LINCOLN        SUNNY     77  58  51 SW14      29.75R
NEBRASKA CITY  SUNNY     73  54  52 SW20      29.77S
BEATRICE       SUNNY     73  58  59 SW14G20   29.76S
FALLS CITY     SUNNY     75  58  55 S15G28    29.78F

...NORTHERN KANSAS...

CITY           SKY/WX    TMP DP  RH WIND       PRES   REMARKS
GOODLAND       MOSUNNY   76  47  35 NW9       29.88S
HILL CITY      SUNNY     79  50  36 VRB6      29.81F
NORTON         SUNNY     79  37  22 SW10      29.80S
PHILLIPSBURG   SUNNY     81  46  30 SW9       29.79F
SMITH CENTER   SUNNY     79  48  34 W6        29.79S
BELOIT         SUNNY     79  45  29 W5        29.76F
HAYS           SUNNY     81  46  30 CALM      29.82R
RUSSELL        SUNNY     81  47  30 S5        29.79S
CONCORDIA      MOSUNNY   77  53  43 W8        29.78R
SALINA         MOSUNNY   77  57  50 S15       29.80F
TOPEKA         MOSUNNY   74  57  55 S16G25    29.84S



USA.gov is the U.S. government's official web portal to all federal, state and local government web resources and services.